Notices

What's New in latest Release from April 7th, 2021:

- Updated Glossary, including Speed of Maximum Gust, and Total Hourly Precipitation

- Updated national and regional climate services offices contacts and prices information

- Addition of station inventory lists for 1981-2010, 1971-2000, and 1961-1990 Normals.

If you haven't already, please take our survey and provide feedback about our website: https://eccc.sondage-survey.ca/f/LanguageSelection.aspx?s=442ca660-fcf1-47c0-95a9-59707d6fd709

Hourly Data Report for November 06, 2019

VICTORIA UNIVERSITY CS
BRITISH COLUMBIA
Current Station Operator: ECCC - MSC

48°27'25.200" N
123°18'16.600" W
60.10 m
1018598
71783
WYJ

Download Data

Hourly Data (November 2019)
Hourly Data Report for November 6, 2019
TIME
LST
Temp Definition
°C
Dew Point Definition
°C
Rel Hum Definition
%
Precip. Amount Definition
mm

Wind Dir Definition
10's deg

Wind Spd Definition
km/h
Visibility Definition
km
Stn Press Definition
kPa
Hmdx Definition


Wind Chill Definition


Weather Definition


00:00 6.2 5.5 95 0.0 33 3   101.63     LegendNANA
01:00 6.5 5.3 92 0.0 32 3   101.64     LegendNANA
02:00 6.1 5.3 95 0.0 34 3   101.69     LegendNANA
03:00 5.8 5.0 95 0.0 31 3   101.69     LegendNANA
04:00 5.4 4.9 97 0.0 35 3   101.70     LegendNANA
05:00 5.4 4.8 96 0.0 33 3   101.74     LegendNANA
06:00 5.8 5.3 96 0.0 36 6   101.78     LegendNANA
07:00 6.9 5.7 92 0.0 31 5   101.80     LegendNANA
08:00 7.3 5.9 91 0.0 34 6   101.85     LegendNANA
09:00 8.6 6.6 87 0.0 36 10   101.87     LegendNANA
10:00 9.2 6.7 85 0.0 36 10   101.89     LegendNANA
11:00 10.1 6.9 81 0.0 35 13   101.86     LegendNANA
12:00 11.2 6.4 72 0.0 1 11   101.80     LegendNANA
13:00 11.4 6.6 72 0.0 36 10   101.81     LegendNANA
14:00 11.3 6.6 73 0.0 1 8   101.77     LegendNANA
15:00 10.8 7.4 80 0.0 36 6   101.76     LegendNANA
16:00 10.2 6.8 79 0.0 35 4   101.78     LegendNANA
17:00 8.8 7.1 89 0.0 34 4   101.76     LegendNANA
18:00 8.2 7.0 92 0.0 32 4   101.75     LegendNANA
19:00 8.1 7.0 93 0.0 34 4   101.74     LegendNANA
20:00 8.1 7.1 94 0.0 1 6   101.72     LegendNANA
21:00 7.5 6.8 95 0.0 35 4   101.74     LegendNANA
22:00 7.7 6.4 91 0.0 34 5   101.75     LegendNANA
23:00 7.4 6.1 92 0.0 35 6   101.72     LegendNANA

Notes on Data Quality.

Legend

  • E = Estimated
  • M = Missing
  • NA = Not Available*
  • [empty] = Indicates an unobserved value
Date modified: